Saint Bonnet de Bellac- Haute Vienne - France
Donnes mto: lundi, 01/10/2012
Date Horaire Temp. E. Hum. E. P.atmo. Pluie Vent Direction Direction Ensoleilleme Solaire P. de rose Temp au vent Rafales
01/10/2012 00:00 8,1 C 80 % 1019,9 hPa 0,0 mm 0,0 km/h (0 Bft) N-NO 337 0 min 0 W/m 4,9 C 8,1 C 0,0 km/h (0 Bft)
01/10/2012 00:10 7,9 C 80 % 1019,9 hPa 0,0 mm 0,0 km/h (0 Bft) N-NO 337 0 min 0 W/m 4,7 C 7,9 C 0,0 km/h (0 Bft)
01/10/2012 00:20 7,8 C 81 % 1019,9 hPa 0,0 mm 0,0 km/h (0 Bft) NE 45 0 min 0 W/m 4,7 C 7,8 C 0,0 km/h (0 Bft)
01/10/2012 00:30 7,7 C 81 % 1019,9 hPa 0,0 mm 0,0 km/h (0 Bft) NE 45 0 min 0 W/m 4,7 C 7,7 C 0,0 km/h (0 Bft)
01/10/2012 00:40 7,4 C 82 % 1020,0 hPa 0,0 mm 0,0 km/h (0 Bft) NE 45 0 min 0 W/m 4,5 C 7,4 C 0,0 km/h (0 Bft)
01/10/2012 00:50 7,3 C 82 % 1020,0 hPa 0,0 mm 0,0 km/h (0 Bft) NE 45 0 min 0 W/m 4,4 C 7,3 C 0,0 km/h (0 Bft)
01/10/2012 01:00 7,1 C 82 % 1019,9 hPa 0,0 mm 0,0 km/h (0 Bft) NE 45 0 min 0 W/m 4,2 C 7,1 C 0,0 km/h (0 Bft)
01/10/2012 01:10 6,9 C 82 % 1019,8 hPa 0,0 mm 0,0 km/h (0 Bft) NE 45 0 min 0 W/m 4,0 C 6,9 C 0,0 km/h (0 Bft)
01/10/2012 01:20 6,7 C 83 % 1019,8 hPa 0,0 mm 0,0 km/h (0 Bft) N-NE 22 0 min 0 W/m 4,0 C 6,7 C 0,0 km/h (0 Bft)
01/10/2012 01:30 6,6 C 83 % 1019,8 hPa 0,0 mm 0,0 km/h (0 Bft) N-NE 22 0 min 0 W/m 3,9 C 6,6 C 0,0 km/h (0 Bft)
01/10/2012 01:40 6,4 C 84 % 1019,8 hPa 0,0 mm 0,0 km/h (0 Bft) N-NE 22 0 min 0 W/m 3,9 C 6,4 C 0,0 km/h (0 Bft)
01/10/2012 01:50 6,4 C 84 % 1019,6 hPa 0,0 mm 0,0 km/h (0 Bft) NE 45 0 min 0 W/m 3,9 C 6,4 C 0,0 km/h (0 Bft)
01/10/2012 02:00 6,3 C 84 % 1019,7 hPa 0,0 mm 0,0 km/h (0 Bft) NE 45 0 min 0 W/m 3,8 C 6,3 C 0,0 km/h (0 Bft)
01/10/2012 02:10 6,2 C 85 % 1019,7 hPa 0,0 mm 0,0 km/h (0 Bft) NE 45 0 min 0 W/m 3,9 C 6,2 C 0,0 km/h (0 Bft)
01/10/2012 02:20 6,0 C 84 % 1019,6 hPa 0,0 mm 0,0 km/h (0 Bft) NE 45 0 min 0 W/m 3,5 C 6,0 C 0,0 km/h (0 Bft)
01/10/2012 02:30 5,9 C 85 % 1019,6 hPa 0,0 mm 0,0 km/h (0 Bft) NE 45 0 min 0 W/m 3,6 C 5,9 C 0,0 km/h (0 Bft)
01/10/2012 02:40 5,8 C 85 % 1019,5 hPa 0,0 mm 0,0 km/h (0 Bft) NE 45 0 min 0 W/m 3,5 C 5,8 C 0,0 km/h (0 Bft)
01/10/2012 02:50 5,6 C 86 % 1019,5 hPa 0,0 mm 0,0 km/h (0 Bft) NE 45 0 min 0 W/m 3,4 C 5,6 C 0,0 km/h (0 Bft)
01/10/2012 03:02 5,5 C 86 % 1019,3 hPa 0,0 mm 0,0 km/h (0 Bft) NE 45 0 min 0 W/m 3,3 C 5,5 C 0,0 km/h (0 Bft)
01/10/2012 03:10 5,4 C 86 % 1019,3 hPa 0,0 mm 0,0 km/h (0 Bft) NE 45 0 min 0 W/m 3,3 C 5,4 C 0,0 km/h (0 Bft)
01/10/2012 03:20 5,3 C 86 % 1019,1 hPa 0,0 mm 0,0 km/h (0 Bft) NE 45 0 min 0 W/m 3,2 C 5,3 C 0,0 km/h (0 Bft)
01/10/2012 03:30 5,2 C 86 % 1019,0 hPa 0,0 mm 0,0 km/h (0 Bft) NE 45 0 min 0 W/m 3,1 C 5,2 C 0,0 km/h (0 Bft)
01/10/2012 03:40 5,3 C 87 % 1018,9 hPa 0,0 mm 0,0 km/h (0 Bft) NE 45 0 min 0 W/m 3,3 C 5,3 C 0,0 km/h (0 Bft)
01/10/2012 03:50 5,3 C 87 % 1018,8 hPa 0,0 mm 0,0 km/h (0 Bft) NE 45 0 min 0 W/m 3,3 C 5,3 C 0,0 km/h (0 Bft)
01/10/2012 04:00 5,1 C 87 % 1018,7 hPa 0,0 mm 0,0 km/h (0 Bft) NE 45 0 min 0 W/m 3,1 C 5,1 C 0,0 km/h (0 Bft)
01/10/2012 04:10 5,0 C 87 % 1018,6 hPa 0,0 mm 0,0 km/h (0 Bft) NE 45 0 min 0 W/m 3,0 C 5,0 C 0,0 km/h (0 Bft)
01/10/2012 04:20 4,9 C 87 % 1018,6 hPa 0,0 mm 0,0 km/h (0 Bft) NE 45 0 min 0 W/m 2,9 C 4,9 C 0,0 km/h (0 Bft)
01/10/2012 04:30 5,0 C 87 % 1018,5 hPa 0,0 mm 0,0 km/h (0 Bft) NE 45 0 min 0 W/m 3,0 C 5,0 C 0,0 km/h (0 Bft)
01/10/2012 04:40 4,9 C 88 % 1018,5 hPa 0,0 mm 0,0 km/h (0 Bft) NE 45 0 min 0 W/m 3,1 C 4,9 C 0,0 km/h (0 Bft)
01/10/2012 04:50 4,9 C 88 % 1018,4 hPa 0,0 mm 0,0 km/h (0 Bft) NE 45 0 min 0 W/m 3,1 C 4,9 C 0,0 km/h (0 Bft)
01/10/2012 05:00 4,9 C 88 % 1018,4 hPa 0,0 mm 0,0 km/h (0 Bft) E-NE 67 0 min 0 W/m 3,1 C 4,9 C 0,0 km/h (0 Bft)
01/10/2012 05:10 4,9 C 88 % 1018,4 hPa 0,0 mm 0,0 km/h (0 Bft) E-NE 67 0 min 0 W/m 3,1 C 4,9 C 0,0 km/h (0 Bft)
01/10/2012 05:20 4,9 C 88 % 1018,4 hPa 0,0 mm 1,1 km/h (1 Bft) E-SE 112 0 min 0 W/m 3,1 C 4,9 C 2,9 km/h (1 Bft)
01/10/2012 05:30 4,9 C 88 % 1018,4 hPa 0,0 mm 0,0 km/h (0 Bft) E 90 0 min 0 W/m 3,1 C 4,9 C 2,9 km/h (1 Bft)
01/10/2012 05:40 5,1 C 88 % 1018,3 hPa 0,0 mm 0,7 km/h (0 Bft) E-SE 112 0 min 0 W/m 3,3 C 5,1 C 4,0 km/h (1 Bft)
01/10/2012 05:50 4,9 C 88 % 1018,3 hPa 0,0 mm 0,0 km/h (0 Bft) E 90 0 min 0 W/m 3,1 C 4,9 C 0,0 km/h (0 Bft)
01/10/2012 06:00 4,8 C 88 % 1018,4 hPa 0,0 mm 0,4 km/h (0 Bft) E 90 0 min 0 W/m 3,0 C 4,8 C 3,2 km/h (1 Bft)
01/10/2012 06:10 4,8 C 88 % 1018,5 hPa 0,0 mm 0,0 km/h (0 Bft) SE 135 0 min 0 W/m 3,0 C 4,8 C 0,0 km/h (0 Bft)
01/10/2012 06:20 4,6 C 88 % 1018,5 hPa 0,0 mm 0,0 km/h (0 Bft) SE 135 0 min 0 W/m 2,8 C 4,6 C 0,0 km/h (0 Bft)
01/10/2012 06:30 4,3 C 88 % 1018,6 hPa 0,0 mm 0,0 km/h (0 Bft) SE 135 0 min 0 W/m 2,5 C 4,3 C 0,0 km/h (0 Bft)
01/10/2012 06:40 4,3 C 89 % 1018,5 hPa 0,0 mm 0,0 km/h (0 Bft) E 90 0 min 0 W/m 2,7 C 4,3 C 0,0 km/h (0 Bft)
01/10/2012 06:50 4,3 C 89 % 1018,6 hPa 0,0 mm 0,0 km/h (0 Bft) E-SE 112 0 min 0 W/m 2,7 C 4,3 C 0,0 km/h (0 Bft)
01/10/2012 07:00 4,2 C 89 % 1018,6 hPa 0,0 mm 0,0 km/h (0 Bft) E 90 0 min 0 W/m 2,6 C 4,2 C 0,0 km/h (0 Bft)
01/10/2012 07:10 4,3 C 89 % 1018,7 hPa 0,0 mm 0,0 km/h (0 Bft) E-SE 112 0 min 0 W/m 2,7 C 4,3 C 0,0 km/h (0 Bft)
01/10/2012 07:20 4,3 C 89 % 1018,7 hPa 0,0 mm 3,2 km/h (1 Bft) E 90 0 min 0 W/m 2,7 C 4,3 C 4,3 km/h (1 Bft)
01/10/2012 07:30 4,4 C 89 % 1018,6 hPa 0,0 mm 0,0 km/h (0 Bft) SE 135 0 min 0 W/m 2,7 C 4,4 C 0,0 km/h (0 Bft)
01/10/2012 07:40 4,3 C 89 % 1018,7 hPa 0,0 mm 0,0 km/h (0 Bft) E-SE 112 0 min 0 W/m 2,7 C 4,3 C 0,0 km/h (0 Bft)
01/10/2012 07:50 4,3 C 89 % 1018,8 hPa 0,0 mm 0,0 km/h (0 Bft) E 90 0 min 0 W/m 2,7 C 4,3 C 0,0 km/h (0 Bft)
01/10/2012 08:00 4,2 C 90 % 1018,9 hPa 0,0 mm 0,0 km/h (0 Bft) E-NE 67 0 min 0 W/m 2,7 C 4,2 C 0,0 km/h (0 Bft)
01/10/2012 08:10 4,1 C 90 % 1018,9 hPa 0,0 mm 0,4 km/h (0 Bft) E-SE 112 0 min 0 W/m 2,6 C 4,1 C 4,0 km/h (1 Bft)
01/10/2012 08:20 4,0 C 90 % 1018,9 hPa 0,0 mm 1,4 km/h (1 Bft) E 90 0 min 0 W/m 2,5 C 4,0 C 4,3 km/h (1 Bft)
01/10/2012 08:30 4,1 C 90 % 1019,0 hPa 0,0 mm 0,4 km/h (0 Bft) E 90 0 min 0 W/m 2,6 C 4,1 C 3,6 km/h (1 Bft)
01/10/2012 08:40 4,1 C 90 % 1019,1 hPa 0,0 mm 0,0 km/h (0 Bft) E-SE 112 0 min 0 W/m 2,6 C 4,1 C 0,0 km/h (0 Bft)
01/10/2012 08:50 4,2 C 90 % 1019,2 hPa 0,0 mm 0,0 km/h (0 Bft) E 90 0 min 0 W/m 2,7 C 4,2 C 0,0 km/h (0 Bft)
01/10/2012 09:00 4,8 C 91 % 1019,1 hPa 0,0 mm 0,0 km/h (0 Bft) E 90 0 min 0 W/m 3,5 C 4,8 C 0,0 km/h (0 Bft)
01/10/2012 09:10 5,6 C 91 % 1019,3 hPa 0,0 mm 0,0 km/h (0 Bft) E 90 0 min 0 W/m 4,2 C 5,6 C 0,0 km/h (0 Bft)
_ Min-Heure 08:20 00:10 05:50 - 09:10 - - - - 06:30 08:20 09:10
Minimum _ 4,0 C 80 % 1018,3 hPa - 0,0 km/h (0 Bft) - - - - 2,5 C 4,0 C 0,0 km/h (0 Bft)
_ Max-Heure 00:00 09:10 00:50 09:10 07:20 - - 09:10 09:10 00:00 00:00 08:20
Maximum _ 8,1 C 91 % 1020,0 hPa 0,0 mm 3,2 km/h
E (1 Bft)
- - 0 min 0 W/m 4,9 C 8,1 C 4,3 km/h
E (1 Bft)
Moyenne _ 5,3 C 87 % 1019,0 hPa #0,0 mm 0,1 km/h (0 Bft) NE - #0 min. 0 W/m 3,3 C 5,3 C 0,5 km/h (0 Bft)
Saint Bonnet de Bellac- Haute Vienne - France